SL-16 R/B

Satellite information

Favourite Embed

Satellite Type and Status

ROCKET BODYIN ORBIT

Key statistics

Satellite SL-16 R/B at a glance.

Uptime

12080

Days in orbit

Revolutions

≈ 14.2

Per day

Orbit

LEO

Low Earth Orbit

Inclination

71.0

Latest

Satellite identification and parameters

Extended collection of information and parameters for SL-16 R/B.

Object identification

Identified? True

Debris? False

Object name: SL-16 R/B

International designator: 1992-076B

Object number (NORAD): 22220

Object ID (CCSDS): 22220

Country: COMMONWEALTH OF INDEPENDENT STATES (CIS)

Current information (Y/N): Y

RCS size: LARGE

Orbital parameters

Period: 101.635 minutes

Inclination: 71.0006 deg

SMA: 7214.194 km

Apoapsis: 846.741 km

Periapsis: 825.376 km

RAAN: 12.4646 deg

Eccentricy: 0.00148075

Argument of periapsis: 234.7634 deg

Mean anomaly: 204.4438 deg

Mean motion: 14.16840867 rev/day

Mean motion (dot): -0.00000084 rev/day2

B* drag term: -0.000018192128 1/REarth

Two-line elements (TLE)

Creation date: Dec. 12, 2025, 10:14 a.m.

Reference frame: TEME

Reference center: EARTH

Epoch: Dec. 12, 2025, 7:07 a.m. UTC

TLE line 0: 0 SL-16 R/B

TLE line 1: 1 22220U 92076B 25346.29712318 -.00000084 00000-0 -18192-4 0 9994

TLE line 2: 2 22220 71.0006 12.4646 0014808 234.7634 204.4438 14.16840867709452

Live tracking on map

Real-time ground track for satellite SL-16 R/B.

In-orbit conjunctions

A list of the most updated potential collisions computed for object SL-16 R/B.

Target Orbit TCA Probability of collision Miss distance Type
FENGYUN 1C DEB SSO 2025-08-10 22:45:56 0.0001759527 160.0 (m) DEBRIS
FENGYUN 1C DEB SSO 2025-06-30 03:01:10 0.0005681265 24.0 (m) DEBRIS
FENGYUN 1C DEB SSO 2025-05-26 00:17:13 0.0001132795 253.0 (m) DEBRIS
CZ-6A DEB SSO 2025-05-08 03:59:36 0.0001829047 398.0 (m) DEBRIS
DELTA 1 DEB SSO 2025-04-08 09:40:06 0.0001117206 625.0 (m) DEBRIS

Associated space launch

Second generation ELING satellite

SL-16 R/B was lifted into orbit during the mission ‘Zenit-2 | Tselina-2 11’, on board a Zenit-2 space rocket.

The launch took place on Nov. 17, 1992, 7:47 a.m. from 45/1.

For more information about the launch, click the button.

Launch to space Zenit-2 | Tselina-2 11
Zenit-2 | Tselina-2 11

Agency: N/A

Status: Launch Successful

Launch date: Nov. 17, 1992, 7:47 a.m. UTC

Rocket: Zenit-2

Launch pad: 45/1

Location: Baikonur Cosmodrome, Republic of Kazakhstan

...

Latest news about this satellite

There are no fresh news available about this satellite. Check back as we update our databases every day.


Newsletter sign-up

Weekly statistics, charts and insights to help you stay on top of the space industry.